Probability
0 0 0 0 0 0 0 0 0 0 0 0 0 0 0 0 0 0 0 0 0 0 1 2 3 3 3 3 2 1 0 0 0 0 0 0 0 0 1 3 3 4 6 6
0 0 0 0 0 0 0 0 0 0 0 0 0 0 0 0 0 0 0 0 0 0 1 3 3 3 3 3 3 2 1 0 0 0 0 0 0 0 2 3 3 4 5 6
0 0 0 0 0 0 0 0 0 0 0 0 0 0 0 0 0 0 0 0 0 0 2 3 3 3 3 3 3 3 2 1 0 0 0 0 0 0 1 2 3 3 4 5
0 0 0 0 0 0 0 0 0 0 0 0 0 0 0 0 0 0 0 0 0 0 2 3 3 3 3 3 3 3 3 2 1 0 0 0 0 0 0 1 2 2 3 3
0 0 0 0 0 0 0 0 0 0 0 0 0 0 0 0 0 0 0 0 0 1 2 3 3 3 3 3 3 3 3 2 1 0 0 0 0 0 0 0 1 1 1 2
0 0 0 0 0 0 0 0 0 0 0 0 0 0 0 0 0 0 0 0 1 2 3 3 3 3 3 3 3 3 2 1 0 0 0 0 0 0 0 0 0 0 1 2
0 0 0 0 0 0 0 0 0 0 0 0 0 0 0 0 0 0 0 0 1 2 3 3 3 3 3 3 3 3 1 0 0 0 0 0 0 0 0 0 0 0 1 2
0 0 0 0 0 0 0 0 0 0 0 0 0 0 0 0 0 0 0 0 1 2 3 3 3 2 2 2 2 2 1 0 0 0 0 0 0 0 0 0 0 0 1 2
0 0 0 0 0 0 0 0 0 0 0 0 0 0 0 0 0 0 0 0 1 2 3 2 1 1 1 0 1 1 0 0 0 0 0 0 0 0 0 0 0 0 1 1
0 0 0 0 0 0 0 0 0 0 0 0 0 0 0 0 0 0 0 0 1 2 3 1 0 0 0 0 0 0 0 0 0 0 0 0 0 0 0 0 0 1 1 1
0 0 0 0 0 0 0 0 0 0 0 0 0 0 0 0 0 0 0 0 1 2 2 1 0 0 0 0 0 0 0 0 0 0 0 0 0 0 0 0 0 1 2 1
0 0 0 0 0 0 0 0 0 0 0 0 0 0 0 0 0 0 0 0 0 1 1 0 0 0 0 0 0 0 0 0 0 0 0 0 0 0 0 0 1 2 2 1
0 0 0 0 0 0 0 0 0 0 0 0 0 0 0 0 0 0 0 0 0 0 0 0 0 0 0 0 0 0 0 0 0 0 0 0 0 0 0 0 1 1 1 0
0 0 0 0 0 0 0 0 0 0 0 0 0 0 0 0 0 0 0 0 0 0 0 0 0 0 0 0 0 0 0 0 0 0 0 0 0 0 0 0 0 0 0 0
0 0 0 0 0 0 0 0 0 0 0 0 0 0 0 0 0 0 0 0 0 0 0 0 0 0 0 0 0 0 0 0 0 0 0 0 0 0 0 0 0 0 0 0
0 0 0 0 0 0 0 0 0 0 0 0 0 0 0 0 0 0 0 0 0 0 0 0 0 0 0 0 0 0 0 0 0 0 0 0 0 0 0 0 0 0 0 0
0 0 0 0 0 0 0 0 0 0 0 0 0 0 0 0 0 0 0 0 0 0 0 0 0 0 0 0 0 0 0 0 0 0 0 0 0 0 0 0 0 0 0 0
0 0 0 0 0 0 0 0 0 0 0 0 0 0 0 0 0 0 0 0 0 0 0 0 0 0 0 0 0 0 0 0 0 0 0 0 0 1 1 1 0 0 0 0
0 0 0 0 0 0 0 0 0 0 0 0 0 0 0 0 0 0 0 0 0 0 0 0 0 0 0 0 0 0 0 0 0 0 0 0 0 1 2 2 0 0 0 0
0 0 0 0 0 0 0 0 0 0 0 0 0 0 0 0 0 0 0 0 0 0 0 0 0 0 0 0 0 0 0 0 0 0 0 0 0 1 2 1 0 0 0 0
0 0 0 0 0 0 0 0 0 0 0 0 0 0 0 0 0 0 0 0 0 0 0 0 0 0 0 0 0 0 0 0 0 0 0 0 0 1 1 0 0 0 0 0
0 0 0 0 0 0 0 0 0 0 0 0 0 0 0 0 0 0 0 0 0 0 0 0 0 0 0 0 0 0 0 0 0 0 0 0 0 0 0 0 0 0 0 0
0 0 0 0 0 0 0 0 0 0 0 0 0 0 0 0 0 0 0 0 0 0 0 0 0 0 0 0 0 0 0 0 0 0 0 0 0 0 0 0 0 0 0 0
0 0 0 0 0 0 0 0 0 0 0 0 0 0 0 0 0 0 0 0 0 0 0 0 0 0 0 0 0 0 0 0 0 0 0 0 0 0 0 0 0 0 0 0
0 0 0 0 0 0 0 0 0 0 0 0 0 0 0 0 0 0 0 0 0 0 0 0 0 0 0 0 0 0 0 0 0 0 0 0 0 0 0 0 0 0 0 0
0 0 0 0 0 0 0 0 0 0 0 0 0 0 0 0 0 0 0 0 0 0 0 0 0 0 0 0 0 0 0 0 0 0 0 0 0 0 0 0 0 0 0 0
Wind_Speed
2 3 2 5 5 3 3 2 4 5 3 2 6 9 11 7 4 5 5 4 5 5 4 2 2 2 1 1 1 2 2 2 1 0 1 1 1 2 2 2 2 2 2 2
3 2 4 2 2 2 3 3 5 5 2 2 6 10 10 7 6 6 6 6 5 4 3 3 2 1 1 2 2 3 3 3 2 1 1 1 2 2 2 2 2 2 2 2
3 3 1 2 1 2 4 5 4 4 5 2 4 8 6 5 3 3 4 5 5 5 5 4 3 3 2 2 3 3 4 3 2 2 1 1 1 1 1 2 2 2 2 2
1 3 1 1 2 3 5 3 4 3 2 4 1 6 7 4 4 4 4 4 4 4 4 4 3 3 3 4 3 3 4 3 3 2 1 2 2 2 3 2 2 3 3 3
1 1 1 2 3 3 4 1 1 2 2 3 2 4 10 3 5 6 5 4 4 4 4 4 4 4 4 3 2 3 4 3 3 2 3 2 2 2 2 2 3 3 3 3
2 1 1 2 2 1 2 2 2 2 2 4 5 5 9 3 5 6 4 4 4 3 3 4 3 3 3 2 2 3 3 3 3 2 3 3 3 3 3 3 3 3 3 2
4 2 1 0 2 2 2 4 3 4 2 6 2 4 10 5 4 4 5 5 3 2 2 3 3 3 3 3 3 3 3 4 3 3 3 3 4 4 4 4 4 3 3 2
1 4 2 1 2 2 2 4 4 3 4 5 2 7 8 4 4 3 3 2 2 1 2 3 3 3 4 4 4 3 3 4 3 3 3 3 4 3 3 4 4 4 3 3
2 4 2 1 1 3 3 2 3 3 1 4 6 7 8 3 4 5 4 3 3 3 3 3 4 4 4 4 4 3 4 4 4 3 4 3 4 4 4 4 4 3 3 3
3 2 3 2 1 2 2 4 3 3 1 4 6 5 5 5 5 5 5 5 5 4 4 4 4 4 4 4 4 3 3 4 4 4 4 3 4 4 4 4 4 3 3 3
2 2 3 2 1 3 1 2 2 2 2 3 4 7 3 3 3 4 5 5 5 4 4 4 4 4 4 4 4 3 3 3 4 4 4 4 4 4 4 4 4 4 3 3
1 2 2 5 2 1 2 3 4 3 3 3 3 9 3 2 3 3 4 5 4 4 4 4 5 4 4 5 4 4 4 4 4 4 4 4 4 4 4 4 4 4 4 4
2 3 2 5 2 1 1 2 2 3 3 4 4 9 2 4 4 4 4 5 5 5 5 5 5 5 5 5 5 4 4 4 4 4 4 4 4 3 4 4 4 4 4 4
3 2 4 6 5 3 3 3 3 4 4 5 8 10 9 7 7 7 6 5 5 5 5 5 6 6 6 5 5 4 5 4 4 4 4 4 4 4 4 4 3 3 3 3
2 2 3 6 6 3 4 5 5 7 7 7 8 8 11 7 6 6 5 5 6 6 6 6 6 7 6 6 6 5 5 5 4 4 4 4 3 3 3 3 3 2 2 2
1 1 1 4 3 3 5 6 6 7 6 7 8 11 8 6 4 5 6 5 6 6 7 7 7 7 7 7 6 6 5 5 4 4 4 4 3 3 2 2 2 2 2 2
1 2 0 4 4 3 6 6 7 5 5 6 8 8 4 6 6 6 6 6 6 7 7 7 7 7 7 6 6 5 5 5 4 4 4 3 2 3 2 2 1 1 1 0
4 3 1 2 3 4 6 1 3 4 4 5 5 5 5 7 8 6 5 5 6 6 7 7 7 7 7 6 5 5 4 4 4 4 4 3 2 2 1 0 0 0 0 0
3 4 2 1 2 7 6 1 2 2 5 4 5 6 6 5 6 4 2 3 5 6 7 6 6 6 6 6 5 4 4 4 4 4 4 3 2 2 1 1 1 0 1 1
3 2 2 2 2 5 5 2 1 1 4 2 3 4 4 4 4 5 5 6 6 6 5 6 6 5 5 5 4 3 3 4 4 4 4 3 2 2 2 1 1 1 1 1
1 1 2 3 4 8 5 2 1 2 5 3 2 3 2 3 5 6 6 6 6 6 6 5 5 4 5 4 3 3 4 4 5 4 4 3 2 2 1 1 2 2 2 2
6 4 4 4 3 8 1 3 4 5 3 2 3 3 3 5 5 5 6 6 6 6 6 5 4 5 5 4 3 4 5 5 4 4 4 3 3 2 2 2 2 2 2 2
6 6 5 7 7 4 3 4 4 2 3 3 3 4 3 4 5 5 5 6 6 6 6 5 4 5 5 4 3 4 5 5 4 4 4 4 4 3 3 2 2 2 1 1
4 2 3 4 7 6 5 5 4 4 4 4 4 3 3 4 5 5 5 5 5 6 5 5 5 5 5 5 5 4 5 4 4 4 4 4 4 4 4 3 2 1 1 1
4 4 3 5 6 5 4 5 5 4 3 3 3 3 3 3 4 4 4 4 4 5 5 4 4 4 5 5 5 5 5 4 4 4 4 4 3 3 3 3 3 2 1 1
5 7 6 7 5 4 5 3 2 3 4 3 3 3 3 2 3 4 4 4 4 4 4 4 4 4 5 5 5 5 4 3 3 3 3 3 2 2 2 2 3 5 4 5
Wind_Direction
41 86 211 223 212 208 189 208 262 273 290 275 261 270 275 276 259 253 253 247 249 255 263 266 262 270 292 312 298 277 281 274 263 283 273 270 277 283 283 261 256 254 254 241
46 270 249 222 211 218 222 246 266 287 304 272 281 279 272 259 242 233 235 238 243 262 288 281 269 256 248 266 278 276 276 268 246 234 224 225 243 252 259 270 271 254 249 250
173 254 264 186 206 223 252 230 241 263 320 329 316 296 275 270 252 250 242 233 232 232 244 259 264 261 260 264 264 270 276 267 258 249 236 297 325 311 303 295 279 267 256 252
227 283 256 190 229 213 256 251 239 252 303 296 11 292 286 278 286 269 264 258 248 249 243 247 254 263 257 257 264 273 274 266 259 242 222 220 237 258 266 269 272 280 261 254
279 326 258 237 249 209 224 291 271 266 228 292 265 247 281 302 284 276 266 257 256 252 242 244 249 249 258 265 274 275 271 268 259 240 223 224 247 258 277 280 286 283 273 258
262 279 239 237 275 187 163 53 33 38 65 271 238 210 278 255 252 276 280 270 256 249 251 258 262 264 282 295 296 287 276 282 274 249 233 226 236 253 268 277 276 276 274 268
334 314 307 17 35 5 71 75 16 351 341 256 228 219 254 263 264 258 263 270 261 245 257 269 278 285 291 299 296 281 271 285 282 259 245 237 236 239 244 257 263 267 271 271
338 303 298 338 177 190 190 146 164 216 248 283 273 241 258 279 294 288 262 265 286 284 291 292 289 290 293 291 284 273 273 279 278 263 255 244 235 234 244 251 253 254 255 255
187 271 322 307 293 153 148 181 178 146 264 280 271 281 298 306 328 338 342 342 316 316 322 311 305 290 291 285 279 274 273 276 273 266 262 253 241 236 244 250 251 254 256 259
164 265 304 312 39 24 144 152 113 137 207 276 289 278 273 296 310 325 326 316 306 318 322 311 305 304 307 303 295 291 274 270 270 264 262 264 249 241 240 247 254 258 258 254
146 177 309 346 187 208 128 131 140 147 175 196 282 277 243 259 277 284 288 297 304 303 303 302 302 304 303 307 305 304 299 297 291 279 274 270 260 252 246 246 252 253 253 249
144 129 268 263 256 198 192 189 159 171 231 203 233 271 292 274 293 295 302 313 321 315 308 304 303 308 311 305 302 298 297 296 289 287 278 269 263 257 247 247 251 246 245 244
138 122 353 336 330 342 265 226 190 154 149 190 216 265 315 344 338 328 316 318 327 328 327 323 317 312 307 301 297 294 295 291 289 289 284 278 269 257 249 246 248 244 242 244
110 158 191 224 246 215 238 235 204 172 193 224 234 263 296 316 323 321 316 314 321 322 326 325 321 315 308 306 302 298 297 292 293 292 287 281 271 261 253 246 243 243 240 240
106 213 239 262 270 248 240 234 209 209 212 221 251 257 276 292 294 299 303 315 324 325 327 324 320 316 315 317 312 307 303 302 300 294 289 285 286 277 265 251 241 242 242 245
70 196 270 283 281 262 270 255 225 232 235 245 268 274 278 297 304 309 305 308 314 314 315 315 315 314 313 312 311 311 307 307 307 294 283 286 297 292 270 259 246 238 243 240
153 145 240 279 319 335 280 242 205 214 217 204 234 258 309 317 310 301 299 302 299 303 306 307 307 303 303 304 305 304 302 305 307 303 296 292 294 296 286 265 241 233 235 194
155 139 174 288 14 260 255 299 190 215 250 224 249 281 295 293 298 292 283 290 297 302 304 307 309 308 307 306 305 308 315 311 308 313 314 308 304 303 314 331 239 248 95 91
171 156 157 160 257 280 295 271 166 197 276 227 238 279 302 318 322 308 304 318 299 297 300 302 304 304 309 311 314 321 332 335 331 327 322 321 323 331 356 12 9 43 75 55
72 112 136 151 206 252 268 282 251 111 291 267 229 273 302 343 337 297 315 322 316 314 313 312 314 314 320 321 330 340 341 344 333 326 323 331 347 5 7 358 12 47 65 46
100 107 167 192 233 264 268 285 103 142 267 295 241 256 255 247 247 280 311 318 318 318 318 322 325 327 329 335 348 349 346 333 324 332 343 352 3 8 32 34 31 45 49 45
176 173 194 170 210 259 233 124 180 233 278 273 262 258 258 269 286 299 309 315 323 330 333 336 337 334 340 351 359 349 335 329 342 353 3 6 10 15 33 50 40 42 59 55
200 195 192 196 217 250 198 214 243 250 269 271 267 274 276 284 291 302 311 316 324 331 333 337 341 344 351 356 359 341 331 344 358 12 12 12 16 26 29 39 42 43 46 59
248 200 191 256 263 258 253 259 269 257 259 273 273 272 274 275 285 300 309 318 325 331 333 341 354 355 349 352 356 347 345 358 15 16 11 19 23 21 20 22 30 47 35 33
226 171 202 258 275 295 273 249 259 267 273 283 293 281 273 277 290 297 307 314 321 329 334 346 354 347 342 348 351 351 357 7 15 11 11 18 20 17 18 21 24 20 11 7
196 182 188 231 237 225 266 280 261 256 274 281 295 309 315 295 291 305 305 314 325 332 338 344 348 345 341 346 345 347 355 10 15 9 9 12 10 13 19 24 27 28 26 23